| time (UTC) | temp C | wind direction | speed KPH | gust KPH | rain 1hr cm | rain 24hr cm | rain mn cm | humidity % | barometer mb |
| 20260905235007 | -1 | 0 | 0.0 | 0.0 | 0.00 | 0.00 | 0.00 | 100 | 1025.6 |
| 20260905234509 | 15 | 290 | 20.9 | 22.5 | 0.00 | 0.00 | 0.00 | 63 | 1025.6 |
| 20260905234008 | 15 | 290 | 20.9 | 22.5 | 0.00 | 0.00 | 0.00 | 63 | 1025.8 |
| 20260905233507 | -1 | 0 | 0.0 | 0.0 | 0.00 | 0.00 | 0.00 | 100 | 1025.6 |
| 20260905233007 | -1 | 0 | 0.0 | 0.0 | 0.00 | 0.00 | 0.00 | 100 | 1025.5 |
| 20260905232507 | -1 | 0 | 0.0 | 0.0 | 0.00 | 0.00 | 0.00 | 100 | 1025.7 |
| 20260905232008 | -1 | 0 | 0.0 | 0.0 | 0.00 | 0.00 | 0.00 | 100 | 1025.5 |
| 20260905231507 | 15 | 296 | 25.7 | 29.0 | 0.00 | 0.00 | 0.00 | 60 | 1025.6 |
| 20260905231008 | 15 | 296 | 25.7 | 29.0 | 0.00 | 0.00 | 0.00 | 60 | 1025.8 |
| 20260905230507 | 15 | 305 | 17.7 | 25.7 | 0.00 | 0.00 | 0.00 | 60 | 1025.4 |
| 20260905230007 | -1 | 0 | 0.0 | 0.0 | 0.00 | 0.00 | 0.00 | 100 | 1025.6 |
| 20260905225507 | -1 | 0 | 0.0 | 0.0 | 0.00 | 0.00 | 0.00 | 100 | 1025.6 |
| 20260905225007 | -1 | 0 | 0.0 | 0.0 | 0.00 | 0.00 | 0.00 | 100 | 1025.3 |
| 20260905224507 | -1 | 0 | 0.0 | 0.0 | 0.00 | 0.00 | 0.00 | 100 | 1025.4 |
| 20260905224007 | 15 | 274 | 16.1 | 19.3 | 0.00 | 0.00 | 0.00 | 58 | 1025.4 |
| 20260905223507 | 15 | 274 | 16.1 | 19.3 | 0.00 | 0.00 | 0.00 | 58 | 1025.4 |
| 20260905223007 | 15 | 289 | 20.9 | 22.5 | 0.00 | 0.00 | 0.00 | 57 | 1025.2 |
| 20260905222507 | 15 | 305 | 22.5 | 24.1 | 0.00 | 0.00 | 0.00 | 57 | 1025.5 |
| 20260905222007 | -1 | 0 | 0.0 | 0.0 | 0.00 | 0.00 | 0.00 | 100 | 1025.5 |
| 20260905221508 | -1 | 0 | 0.0 | 0.0 | 0.00 | 0.00 | 0.00 | 100 | 1025.4 |
| 20260905221007 | -1 | 0 | 0.0 | 0.0 | 0.00 | 0.00 | 0.00 | 100 | 1025.4 |
| 20260905220507 | -1 | 0 | 0.0 | 0.0 | 0.00 | 0.00 | 0.00 | 100 | 1025.5 |
| 20260905220008 | 15 | 288 | 16.1 | 22.5 | 0.00 | 0.00 | 0.00 | 56 | 1025.4 |
| 20260905215507 | 15 | 288 | 16.1 | 22.5 | 0.00 | 0.00 | 0.00 | 56 | 1025.4 |
| 20260905215008 | 15 | 289 | 24.1 | 25.7 | 0.00 | 0.00 | 0.00 | 56 | 1025.3 |
| 20260905214508 | 16 | 290 | 17.7 | 19.3 | 0.00 | 0.00 | 0.00 | 56 | 1025.2 |
| 20260905214007 | 16 | 291 | 25.7 | 27.4 | 0.00 | 0.00 | 0.00 | 55 | 1025.3 |
| 20260905213507 | 16 | 300 | 17.7 | 22.5 | 0.00 | 0.00 | 0.00 | 56 | 1025.4 |
| 20260905213007 | 16 | 290 | 29.0 | 30.6 | 0.00 | 0.00 | 0.00 | 55 | 1025.3 |
| 20260905212507 | 16 | 295 | 25.7 | 27.4 | 0.00 | 0.00 | 0.00 | 55 | 1025.4 |
| 20260905212008 | 16 | 297 | 29.0 | 30.6 | 0.00 | 0.00 | 0.00 | 54 | 1025.1 |
| 20260905211507 | 16 | 298 | 27.4 | 29.0 | 0.00 | 0.00 | 0.00 | 54 | 1025.1 |
| 20260905211007 | 16 | 295 | 22.5 | 27.4 | 0.00 | 0.00 | 0.00 | 54 | 1024.8 |
| 20260905210507 | 16 | 295 | 32.2 | 35.4 | 0.00 | 0.00 | 0.00 | 53 | 1024.9 |
| 20260905210007 | 16 | 288 | 27.4 | 30.6 | 0.00 | 0.00 | 0.00 | 54 | 1025.0 |
| 20260905205507 | 16 | 298 | 20.9 | 24.1 | 0.00 | 0.00 | 0.00 | 54 | 1025.0 |
| 20260905205007 | 16 | 289 | 29.0 | 30.6 | 0.00 | 0.00 | 0.00 | 54 | 1024.8 |
| 20260905204507 | 16 | 292 | 24.1 | 25.7 | 0.00 | 0.00 | 0.00 | 54 | 1024.8 |
| 20260905204007 | 16 | 291 | 19.3 | 27.4 | 0.00 | 0.00 | 0.00 | 53 | 1024.6 |
| 20260905203507 | 16 | 298 | 27.4 | 32.2 | 0.00 | 0.00 | 0.00 | 52 | 1024.7 |
| 20260905203008 | 16 | 298 | 27.4 | 32.2 | 0.00 | 0.00 | 0.00 | 52 | 1024.4 |
| 20260905202507 | 16 | 294 | 30.6 | 33.8 | 0.00 | 0.00 | 0.00 | 52 | 1024.5 |
| 20260905202007 | -1 | 0 | 0.0 | 0.0 | 0.00 | 0.00 | 0.00 | 100 | 1024.6 |
| 20260905201508 | 17 | 297 | 29.0 | 37.0 | 0.00 | 0.00 | 0.00 | 51 | 1024.4 |
| 20260905201007 | 17 | 297 | 29.0 | 37.0 | 0.00 | 0.00 | 0.00 | 51 | 1024.4 |
| 20260905200507 | 17 | 293 | 29.0 | 32.2 | 0.00 | 0.00 | 0.00 | 51 | 1024.3 |
| 20260905200007 | 17 | 295 | 25.7 | 37.0 | 0.00 | 0.00 | 0.00 | 51 | 1024.4 |
| 20260905195508 | -1 | 0 | 0.0 | 0.0 | 0.00 | 0.00 | 0.00 | 100 | 1024.3 |
| 20260905195008 | 17 | 281 | 35.4 | 38.6 | 0.00 | 0.00 | 0.00 | 50 | 1024.2 |
| 20260905194508 | 17 | 281 | 35.4 | 38.6 | 0.00 | 0.00 | 0.00 | 50 | 1024.0 |
| 20260905194007 | 17 | 285 | 29.0 | 37.0 | 0.00 | 0.00 | 0.00 | 50 | 1024.1 |
| 20260905193508 | 17 | 289 | 35.4 | 37.0 | 0.00 | 0.00 | 0.00 | 50 | 1023.9 |
| 20260905193007 | -1 | 0 | 0.0 | 0.0 | 0.00 | 0.00 | 0.00 | 100 | 1024.1 |
| 20260905192507 | 17 | 286 | 27.4 | 32.2 | 0.00 | 0.00 | 0.00 | 49 | 1024.0 |
| 20260905192007 | 17 | 286 | 27.4 | 32.2 | 0.00 | 0.00 | 0.00 | 49 | 1023.9 |
| 20260905191507 | 17 | 285 | 29.0 | 30.6 | 0.00 | 0.00 | 0.00 | 49 | 1024.1 |
| 20260905191007 | -1 | 0 | 0.0 | 0.0 | 0.00 | 0.00 | 0.00 | 100 | 1024.0 |
| 20260905190507 | -1 | 0 | 0.0 | 0.0 | 0.00 | 0.00 | 0.00 | 100 | 1024.1 |
| 20260905190008 | -1 | 0 | 0.0 | 0.0 | 0.00 | 0.00 | 0.00 | 100 | 1023.9 |
| 20260905185508 | -1 | 0 | 0.0 | 0.0 | 0.00 | 0.00 | 0.00 | 100 | 1023.8 |
| 20260905185007 | 18 | 289 | 17.7 | 20.9 | 0.00 | 0.00 | 0.00 | 49 | 1023.7 |
| 20260905184506 | 18 | 289 | 17.7 | 20.9 | 0.00 | 0.00 | 0.00 | 49 | 1023.6 |
| 20260905184007 | 18 | 281 | 29.0 | 32.2 | 0.00 | 0.00 | 0.00 | 48 | 1023.7 |
| 20260905183507 | 18 | 283 | 22.5 | 30.6 | 0.00 | 0.00 | 0.00 | 49 | 1023.6 |
| 20260905183008 | 18 | 297 | 19.3 | 22.5 | 0.00 | 0.00 | 0.00 | 51 | 1023.7 |
| 20260905182508 | 18 | 297 | 19.3 | 22.5 | 0.00 | 0.00 | 0.00 | 51 | 1023.4 |
| 20260905182007 | 18 | 305 | 24.1 | 25.7 | 0.00 | 0.00 | 0.00 | 50 | 1023.4 |
| 20260905181507 | 18 | 296 | 22.5 | 27.4 | 0.00 | 0.00 | 0.00 | 50 | 1023.5 |
| 20260905181007 | 18 | 302 | 22.5 | 25.7 | 0.00 | 0.00 | 0.00 | 50 | 1023.2 |
| 20260905180507 | 18 | 304 | 19.3 | 24.1 | 0.00 | 0.00 | 0.00 | 51 | 1023.2 |
| 20260905180007 | 18 | 303 | 24.1 | 30.6 | 0.00 | 0.00 | 0.00 | 50 | 1023.1 |
| 20260905175507 | 18 | 302 | 27.4 | 33.8 | 0.00 | 0.00 | 0.00 | 50 | 1022.9 |
| 20260905175008 | 18 | 302 | 14.5 | 19.3 | 0.00 | 0.00 | 0.00 | 50 | 1022.8 |
| 20260905174508 | 18 | 306 | 22.5 | 25.7 | 0.00 | 0.00 | 0.00 | 50 | 1023.0 |
| 20260905174009 | 18 | 302 | 19.3 | 20.9 | 0.00 | 0.00 | 0.00 | 49 | 1022.8 |
| 20260905173507 | 18 | 319 | 11.3 | 19.3 | 0.00 | 0.00 | 0.00 | 49 | 1022.8 |
| 20260905173008 | 18 | 315 | 12.9 | 19.3 | 0.00 | 0.00 | 0.00 | 49 | 1022.6 |
| 20260905172508 | 18 | 329 | 19.3 | 22.5 | 0.00 | 0.00 | 0.00 | 48 | 1022.7 |
| 20260905172008 | 18 | 305 | 19.3 | 30.6 | 0.00 | 0.00 | 0.00 | 48 | 1022.5 |
| 20260905171508 | 19 | 307 | 17.7 | 24.1 | 0.00 | 0.00 | 0.00 | 48 | 1022.4 |
| 20260905171007 | 19 | 305 | 12.9 | 14.5 | 0.00 | 0.00 | 0.00 | 48 | 1022.5 |
| 20260905170507 | 20 | 307 | 20.9 | 22.5 | 0.00 | 0.00 | 0.00 | 48 | 1022.4 |
| 20260905170007 | 20 | 310 | 14.5 | 22.5 | 0.00 | 0.00 | 0.00 | 47 | 1022.3 |
| 20260905165507 | 20 | 310 | 12.9 | 24.1 | 0.00 | 0.00 | 0.00 | 47 | 1022.1 |
| 20260905165008 | 20 | 293 | 33.8 | 35.4 | 0.00 | 0.00 | 0.00 | 46 | 1022.3 |
| 20260905164508 | 20 | 308 | 12.9 | 17.7 | 0.00 | 0.00 | 0.00 | 46 | 1022.2 |
| 20260905164007 | 20 | 323 | 11.3 | 17.7 | 0.00 | 0.00 | 0.00 | 46 | 1022.0 |
| 20260905163507 | 20 | 298 | 17.7 | 27.4 | 0.00 | 0.00 | 0.00 | 43 | 1021.8 |
| 20260905163008 | 20 | 289 | 20.9 | 30.6 | 0.00 | 0.00 | 0.00 | 44 | 1021.9 |
| 20260905162507 | 20 | 294 | 27.4 | 27.4 | 0.00 | 0.00 | 0.00 | 43 | 1021.8 |
| 20260905162007 | 20 | 311 | 9.7 | 17.7 | 0.00 | 0.00 | 0.00 | 44 | 1021.7 |
| 20260905161507 | 20 | 318 | 20.9 | 27.4 | 0.00 | 0.00 | 0.00 | 43 | 1021.8 |
| 20260905161006 | 21 | 308 | 35.4 | 35.4 | 0.00 | 0.00 | 0.00 | 43 | 1021.8 |
| 20260905160507 | 21 | 312 | 14.5 | 32.2 | 0.00 | 0.00 | 0.00 | 43 | 1021.5 |
| 20260905160009 | 21 | 329 | 19.3 | 29.0 | 0.00 | 0.00 | 0.00 | 43 | 1021.6 |
| 20260905155507 | 21 | 300 | 35.4 | 40.2 | 0.00 | 0.00 | 0.00 | 43 | 1021.5 |
| 20260905155007 | 21 | 295 | 24.1 | 30.6 | 0.00 | 0.00 | 0.00 | 42 | 1021.5 |
| 20260905154506 | 21 | 287 | 29.0 | 30.6 | 0.00 | 0.00 | 0.00 | 42 | 1021.6 |
| 20260905154007 | 21 | 290 | 29.0 | 33.8 | 0.00 | 0.00 | 0.00 | 43 | 1021.3 |
| 20260905153507 | 21 | 265 | 19.3 | 22.5 | 0.00 | 0.00 | 0.00 | 43 | 1021.3 |
| 20260905153008 | 21 | 287 | 40.2 | 53.1 | 0.00 | 0.00 | 0.00 | 42 | 1021.3 |
| 20260905152508 | 20 | 290 | 30.6 | 35.4 | 0.00 | 0.00 | 0.00 | 44 | 1021.3 |
| 20260905152007 | 20 | 282 | 30.6 | 45.1 | 0.00 | 0.00 | 0.00 | 44 | 1021.3 |
| 20260905151507 | 20 | 289 | 30.6 | 37.0 | 0.00 | 0.00 | 0.00 | 45 | 1021.3 |
| 20260905151007 | 20 | 294 | 33.8 | 37.0 | 0.00 | 0.00 | 0.00 | 44 | 1021.4 |
| 20260905150507 | 20 | 308 | 22.5 | 37.0 | 0.00 | 0.00 | 0.00 | 46 | 1021.4 |
| 20260905150007 | 20 | 299 | 27.4 | 46.7 | 0.00 | 0.00 | 0.00 | 45 | 1021.4 |
| 20260905145507 | 20 | 306 | 25.7 | 45.1 | 0.00 | 0.00 | 0.00 | 45 | 1021.6 |
| 20260905145007 | 21 | 279 | 27.4 | 30.6 | 0.00 | 0.00 | 0.00 | 45 | 1021.4 |
| 20260905144507 | 20 | 289 | 27.4 | 32.2 | 0.00 | 0.00 | 0.00 | 45 | 1021.4 |
| 20260905144008 | 20 | 282 | 22.5 | 27.4 | 0.00 | 0.00 | 0.00 | 45 | 1021.3 |
| 20260905143507 | 20 | 289 | 17.7 | 22.5 | 0.00 | 0.00 | 0.00 | 46 | 1021.4 |
| 20260905143007 | 20 | 290 | 24.1 | 25.7 | 0.00 | 0.00 | 0.00 | 46 | 1021.2 |
| 20260905142507 | 20 | 290 | 20.9 | 27.4 | 0.00 | 0.00 | 0.00 | 46 | 1021.6 |
| 20260905142008 | 20 | 295 | 22.5 | 24.1 | 0.00 | 0.00 | 0.00 | 47 | 1021.4 |
| 20260905141508 | 20 | 298 | 35.4 | 40.2 | 0.00 | 0.00 | 0.00 | 46 | 1021.6 |
| 20260905141006 | 20 | 289 | 32.2 | 33.8 | 0.00 | 0.00 | 0.00 | 46 | 1021.4 |
| 20260905140508 | 20 | 300 | 29.0 | 33.8 | 0.00 | 0.00 | 0.00 | 45 | 1021.6 |
| 20260905140008 | 20 | 289 | 25.7 | 30.6 | 0.00 | 0.00 | 0.00 | 44 | 1021.1 |
| 20260905135508 | 20 | 287 | 22.5 | 25.7 | 0.00 | 0.00 | 0.00 | 45 | 1021.3 |
| 20260905135008 | 20 | 274 | 17.7 | 30.6 | 0.00 | 0.00 | 0.00 | 45 | 1021.2 |
| 20260905134508 | 20 | 274 | 29.0 | 35.4 | 0.00 | 0.00 | 0.00 | 46 | 1021.3 |
| 20260905134008 | 20 | 285 | 25.7 | 37.0 | 0.00 | 0.00 | 0.00 | 47 | 1021.2 |
| 20260905133507 | 20 | 289 | 22.5 | 27.4 | 0.00 | 0.00 | 0.00 | 49 | 1021.4 |
| 20260905133008 | 20 | 289 | 22.5 | 27.4 | 0.00 | 0.00 | 0.00 | 49 | 1021.6 |
| 20260905132507 | 20 | 277 | 32.2 | 33.8 | 0.00 | 0.00 | 0.00 | 50 | 1021.5 |
| 20260905132007 | 19 | 290 | 32.2 | 33.8 | 0.00 | 0.00 | 0.00 | 51 | 1021.5 |
| 20260905131508 | 19 | 290 | 32.2 | 33.8 | 0.00 | 0.00 | 0.00 | 51 | 1021.4 |
| 20260905131007 | 18 | 276 | 20.9 | 25.7 | 0.00 | 0.00 | 0.00 | 52 | 1021.5 |
| 20260905130506 | 19 | 285 | 20.9 | 27.4 | 0.00 | 0.00 | 0.00 | 51 | 1021.5 |
| 20260905130007 | 19 | 294 | 22.5 | 29.0 | 0.00 | 0.00 | 0.00 | 50 | 1021.4 |
| 20260905125507 | 19 | 299 | 32.2 | 33.8 | 0.00 | 0.00 | 0.00 | 50 | 1021.5 |
| 20260905125008 | 19 | 288 | 27.4 | 32.2 | 0.00 | 0.00 | 0.00 | 50 | 1021.7 |
| 20260905124507 | 19 | 301 | 24.1 | 29.0 | 0.00 | 0.00 | 0.00 | 51 | 1021.6 |
| 20260905124007 | 19 | 282 | 27.4 | 38.6 | 0.00 | 0.00 | 0.00 | 50 | 1021.5 |
| 20260905123508 | 19 | 295 | 19.3 | 29.0 | 0.00 | 0.00 | 0.00 | 50 | 1021.8 |
| 20260905123007 | 18 | 286 | 27.4 | 30.6 | 0.00 | 0.00 | 0.00 | 52 | 1021.5 |
| 20260905122508 | 18 | 283 | 32.2 | 33.8 | 0.00 | 0.00 | 0.00 | 51 | 1021.8 |
| 20260905122008 | 18 | 297 | 30.6 | 33.8 | 0.00 | 0.00 | 0.00 | 51 | 1021.8 |
| 20260905121508 | 19 | 295 | 27.4 | 35.4 | 0.00 | 0.00 | 0.00 | 50 | 1021.7 |
| 20260905121008 | 19 | 295 | 27.4 | 35.4 | 0.00 | 0.00 | 0.00 | 50 | 1021.9 |
| 20260905120508 | 19 | 281 | 22.5 | 43.5 | 0.00 | 0.00 | 0.00 | 51 | 1021.8 |
| 20260905120008 | 19 | 289 | 29.0 | 35.4 | 0.00 | 0.00 | 0.00 | 50 | 1022.0 |
| 20260905115508 | 18 | 285 | 40.2 | 41.8 | 0.00 | 0.00 | 0.00 | 51 | 1021.7 |
| 20260905115008 | 18 | 268 | 24.1 | 25.7 | 0.00 | 0.00 | 0.00 | 53 | 1021.8 |
| 20260905114507 | 19 | 278 | 30.6 | 40.2 | 0.00 | 0.00 | 0.00 | 52 | 1021.8 |
| 20260905114008 | 19 | 261 | 22.5 | 27.4 | 0.00 | 0.00 | 0.00 | 51 | 1021.8 |
| 20260905113508 | 18 | 289 | 37.0 | 41.8 | 0.00 | 0.00 | 0.00 | 54 | 1021.6 |
| 20260905113008 | 18 | 288 | 25.7 | 27.4 | 0.00 | 0.00 | 0.00 | 56 | 1022.2 |
| 20260905112507 | 18 | 294 | 32.2 | 33.8 | 0.00 | 0.00 | 0.00 | 55 | 1021.6 |
| 20260905112008 | 18 | 297 | 29.0 | 37.0 | 0.00 | 0.00 | 0.00 | 56 | 1021.8 |
| 20260905111508 | 18 | 296 | 25.7 | 37.0 | 0.00 | 0.00 | 0.00 | 57 | 1021.9 |
| 20260905111007 | 18 | 292 | 35.4 | 37.0 | 0.00 | 0.00 | 0.00 | 57 | 1021.9 |
| 20260905110509 | 17 | 275 | 25.7 | 35.4 | 0.00 | 0.00 | 0.00 | 60 | 1022.0 |
| 20260905110008 | 17 | 275 | 25.7 | 35.4 | 0.00 | 0.00 | 0.00 | 60 | 1022.0 |
| 20260905105508 | 18 | 276 | 38.6 | 40.2 | 0.00 | 0.00 | 0.00 | 58 | 1022.0 |
| 20260905105007 | 18 | 261 | 17.7 | 30.6 | 0.00 | 0.00 | 0.00 | 60 | 1022.0 |
| 20260905104508 | 18 | 261 | 17.7 | 30.6 | 0.00 | 0.00 | 0.00 | 60 | 1021.7 |
| 20260905104008 | 18 | 278 | 40.2 | 46.7 | 0.00 | 0.00 | 0.00 | 59 | 1022.0 |
| 20260905103508 | 17 | 250 | 30.6 | 53.1 | 0.00 | 0.00 | 0.00 | 61 | 1021.7 |
| 20260905103008 | 18 | 278 | 24.1 | 27.4 | 0.00 | 0.00 | 0.00 | 62 | 1021.8 |
| 20260905102506 | 17 | 287 | 22.5 | 35.4 | 0.00 | 0.00 | 0.00 | 63 | 1022.0 |
| 20260905102008 | 17 | 271 | 14.5 | 25.7 | 0.00 | 0.00 | 0.00 | 63 | 1021.9 |
| 20260905101508 | 17 | 275 | 9.7 | 17.7 | 0.00 | 0.00 | 0.00 | 66 | 1022.0 |
| 20260905101008 | 17 | 275 | 9.7 | 17.7 | 0.00 | 0.00 | 0.00 | 66 | 1021.8 |
| 20260905100508 | 17 | 278 | 22.5 | 25.7 | 0.00 | 0.00 | 0.00 | 67 | 1022.0 |
| 20260905100008 | 17 | 283 | 17.7 | 22.5 | 0.00 | 0.00 | 0.00 | 66 | 1021.8 |
| 20260905095508 | 16 | 259 | 16.1 | 30.6 | 0.00 | 0.00 | 0.00 | 66 | 1021.9 |
| 20260905095008 | 17 | 290 | 29.0 | 37.0 | 0.00 | 0.00 | 0.00 | 67 | 1021.7 |
| 20260905094508 | 17 | 291 | 22.5 | 30.6 | 0.00 | 0.00 | 0.00 | 67 | 1021.9 |
| 20260905094008 | 17 | 282 | 32.2 | 32.2 | 0.00 | 0.00 | 0.00 | 66 | 1021.9 |
| 20260905093508 | 16 | 254 | 14.5 | 17.7 | 0.00 | 0.00 | 0.00 | 70 | 1022.1 |
| 20260905093007 | 16 | 286 | 22.5 | 25.7 | 0.00 | 0.00 | 0.00 | 69 | 1021.9 |
| 20260905092508 | 16 | 266 | 19.3 | 25.7 | 0.00 | 0.00 | 0.00 | 69 | 1021.9 |
| 20260905092008 | 16 | 236 | 22.5 | 25.7 | 0.00 | 0.00 | 0.00 | 70 | 1021.9 |
| 20260905091508 | 16 | 264 | 27.4 | 27.4 | 0.00 | 0.00 | 0.00 | 70 | 1021.9 |
| 20260905091008 | 16 | 284 | 35.4 | 37.0 | 0.00 | 0.00 | 0.00 | 71 | 1022.0 |
| 20260905090508 | 16 | 276 | 25.7 | 29.0 | 0.00 | 0.00 | 0.00 | 73 | 1021.8 |
| 20260905090008 | 16 | 264 | 19.3 | 22.5 | 0.00 | 0.00 | 0.00 | 72 | 1021.9 |
| 20260905085508 | 16 | 280 | 14.5 | 16.1 | 0.00 | 0.00 | 0.00 | 74 | 1021.6 |
| 20260905085008 | 16 | 232 | 25.7 | 25.7 | 0.00 | 0.00 | 0.00 | 73 | 1021.6 |
| 20260905084508 | 16 | 265 | 19.3 | 20.9 | 0.00 | 0.00 | 0.00 | 73 | 1021.5 |
| 20260905084008 | 16 | 295 | 14.5 | 22.5 | 0.00 | 0.00 | 0.00 | 74 | 1021.8 |
| 20260905083508 | 15 | 280 | 8.0 | 19.3 | 0.00 | 0.00 | 0.00 | 76 | 1021.5 |
| 20260905083008 | 15 | 238 | 22.5 | 24.1 | 0.00 | 0.00 | 0.00 | 75 | 1021.6 |
| 20260905082508 | 15 | 271 | 27.4 | 27.4 | 0.00 | 0.00 | 0.00 | 76 | 1021.5 |
| 20260905082008 | 15 | 250 | 37.0 | 38.6 | 0.00 | 0.00 | 0.00 | 76 | 1021.5 |
| 20260905081509 | 15 | 262 | 19.3 | 27.4 | 0.00 | 0.00 | 0.00 | 77 | 1021.6 |
| 20260905081007 | 15 | 269 | 17.7 | 27.4 | 0.00 | 0.00 | 0.00 | 78 | 1021.6 |
| 20260905080507 | 15 | 259 | 6.4 | 12.9 | 0.00 | 0.00 | 0.00 | 78 | 1021.4 |
| 20260905080008 | 15 | 288 | 16.1 | 22.5 | 0.00 | 0.00 | 0.00 | 79 | 1021.5 |
| 20260905075508 | 15 | 279 | 8.0 | 9.7 | 0.00 | 0.00 | 0.00 | 80 | 1021.2 |
| 20260905075008 | 14 | 271 | 20.9 | 22.5 | 0.00 | 0.00 | 0.00 | 79 | 1021.2 |
| 20260905074507 | 14 | 252 | 16.1 | 24.1 | 0.00 | 0.00 | 0.00 | 81 | 1021.0 |
| 20260905074008 | 14 | 255 | 24.1 | 27.4 | 0.00 | 0.00 | 0.00 | 80 | 1021.0 |
| 20260905073508 | 13 | 252 | 19.3 | 20.9 | 0.00 | 0.00 | 0.00 | 81 | 1021.0 |
| 20260905073008 | 13 | 263 | 24.1 | 27.4 | 0.00 | 0.00 | 0.00 | 82 | 1020.8 |
| 20260905072508 | 13 | 259 | 14.5 | 27.4 | 0.00 | 0.00 | 0.00 | 83 | 1020.8 |
| 20260905072007 | 13 | 251 | 30.6 | 33.8 | 0.00 | 0.00 | 0.00 | 83 | 1020.8 |
| 20260905071508 | 13 | 287 | 17.7 | 24.1 | 0.00 | 0.00 | 0.00 | 85 | 1021.0 |
| 20260905071008 | 13 | 271 | 12.9 | 17.7 | 0.00 | 0.00 | 0.00 | 86 | 1021.0 |
| 20260905070509 | 13 | 248 | 24.1 | 33.8 | 0.00 | 0.00 | 0.00 | 85 | 1021.2 |
| 20260905070008 | 13 | 262 | 16.1 | 24.1 | 0.00 | 0.00 | 0.00 | 86 | 1021.2 |
| 20260905065508 | 13 | 258 | 22.5 | 27.4 | 0.00 | 0.00 | 0.00 | 87 | 1021.0 |
| 20260905065008 | 13 | 260 | 11.3 | 17.7 | 0.00 | 0.00 | 0.00 | 87 | 1020.9 |
| 20260905064507 | 13 | 242 | 14.5 | 19.3 | 0.00 | 0.00 | 0.00 | 90 | 1021.2 |
| 20260905064007 | 13 | 249 | 14.5 | 19.3 | 0.00 | 0.00 | 0.00 | 91 | 1020.9 |
| 20260905063507 | 13 | 246 | 12.9 | 16.1 | 0.00 | 0.00 | 0.00 | 91 | 1020.9 |
| 20260905063008 | 13 | 235 | 16.1 | 25.7 | 0.00 | 0.00 | 0.00 | 91 | 1020.9 |
| 20260905062508 | 13 | 234 | 32.2 | 35.4 | 0.00 | 0.00 | 0.00 | 91 | 1020.8 |
| 20260905062007 | 13 | 230 | 14.5 | 19.3 | 0.00 | 0.00 | 0.00 | 92 | 1020.8 |
| 20260905061508 | 13 | 244 | 24.1 | 24.1 | 0.00 | 0.00 | 0.00 | 92 | 1020.8 |
| 20260905061007 | 13 | 239 | 16.1 | 17.7 | 0.00 | 0.00 | 0.00 | 91 | 1020.4 |
| 20260905060508 | 13 | 269 | 12.9 | 22.5 | 0.00 | 0.00 | 0.00 | 91 | 1020.3 |
| 20260905060008 | 13 | 240 | 14.5 | 17.7 | 0.00 | 0.00 | 0.00 | 91 | 1020.4 |
| 20260905055508 | 13 | 239 | 12.9 | 14.5 | 0.00 | 0.00 | 0.00 | 91 | 1020.5 |
| 20260905055008 | 13 | 210 | 11.3 | 14.5 | 0.00 | 0.00 | 0.00 | 90 | 1020.3 |
| 20260905054509 | 13 | 229 | 8.0 | 16.1 | 0.00 | 0.00 | 0.00 | 91 | 1020.3 |
| 20260905054007 | 12 | 238 | 12.9 | 16.1 | 0.00 | 0.00 | 0.00 | 91 | 1020.4 |
| 20260905053508 | 12 | 221 | 17.7 | 17.7 | 0.00 | 0.00 | 0.00 | 91 | 1020.1 |
| 20260905053008 | 13 | 248 | 16.1 | 20.9 | 0.00 | 0.00 | 0.00 | 89 | 1020.1 |
| 20260905052508 | 12 | 233 | 11.3 | 11.3 | 0.00 | 0.00 | 0.00 | 89 | 1020.1 |
| 20260905052007 | 12 | 249 | 9.7 | 11.3 | 0.00 | 0.00 | 0.00 | 90 | 1020.0 |
| 20260905051508 | 12 | 259 | 12.9 | 12.9 | 0.00 | 0.00 | 0.00 | 89 | 1019.9 |
| 20260905051007 | 12 | 267 | 9.7 | 9.7 | 0.00 | 0.00 | 0.00 | 89 | 1020.0 |
| 20260905050508 | 12 | 268 | 6.4 | 6.4 | 0.00 | 0.00 | 0.00 | 89 | 1019.8 |
| 20260905050007 | 12 | 313 | 1.6 | 3.2 | 0.00 | 0.00 | 0.00 | 90 | 1019.7 |
| 20260905045508 | 12 | 351 | 3.2 | 6.4 | 0.00 | 0.00 | 0.00 | 91 | 1019.7 |
| 20260905045008 | 12 | 290 | 8.0 | 11.3 | 0.00 | 0.00 | 0.00 | 87 | 1019.4 |
| 20260905044507 | 12 | 228 | 4.8 | 8.0 | 0.00 | 0.00 | 0.00 | 89 | 1019.3 |
| 20260905044007 | 12 | 229 | 14.5 | 16.1 | 0.00 | 0.00 | 0.00 | 87 | 1018.7 |
| 20260905043507 | 13 | 204 | 19.3 | 20.9 | 0.00 | 0.00 | 0.00 | 86 | 1018.9 |
| 20260905043008 | 12 | 224 | 16.1 | 20.9 | 0.00 | 0.00 | 0.00 | 86 | 1018.9 |
| 20260905042507 | 12 | 220 | 24.1 | 25.7 | 0.00 | 0.00 | 0.00 | 88 | 1018.8 |
| 20260905042008 | 12 | 209 | 14.5 | 24.1 | 0.00 | 0.00 | 0.00 | 87 | 1018.4 |
| 20260905041508 | 12 | 232 | 9.7 | 17.7 | 0.00 | 0.00 | 0.00 | 89 | 1018.6 |
| 20260905041006 | 12 | 196 | 24.1 | 30.6 | 0.00 | 0.00 | 0.00 | 90 | 1017.9 |
| 20260905040507 | 13 | 219 | 17.7 | 22.5 | 0.00 | 0.00 | 0.00 | 87 | 1018.6 |
| 20260905040007 | 13 | 227 | 17.7 | 19.3 | 0.00 | 0.00 | 0.00 | 88 | 1018.8 |
| 20260905035507 | 13 | 205 | 12.9 | 30.6 | 0.00 | 0.00 | 0.00 | 86 | 1018.9 |
| 20260905035009 | 13 | 233 | 20.9 | 25.7 | 0.00 | 0.00 | 0.00 | 87 | 1019.0 |
| 20260905034508 | -1 | 0 | 0.0 | 0.0 | 0.00 | 0.00 | 0.00 | 100 | 1019.3 |
| 20260905034008 | 13 | 271 | 25.7 | 29.0 | 0.00 | 0.00 | 0.00 | 84 | 1019.4 |
| 20260905033507 | 13 | 271 | 25.7 | 29.0 | 0.00 | 0.00 | 0.00 | 84 | 1019.2 |
| 20260905033007 | -1 | 0 | 0.0 | 0.0 | 0.00 | 0.00 | 0.00 | 100 | 1019.4 |
| 20260905032507 | -1 | 0 | 0.0 | 0.0 | 0.00 | 0.00 | 0.00 | 100 | 1019.4 |
| 20260905032007 | -1 | 0 | 0.0 | 0.0 | 0.00 | 0.00 | 0.00 | 100 | 1019.3 |
| 20260905031508 | 15 | 289 | 37.0 | 40.2 | 0.00 | 0.00 | 0.00 | 74 | 1019.1 |
| 20260905031007 | 15 | 289 | 37.0 | 40.2 | 0.00 | 0.00 | 0.00 | 74 | 1018.8 |
| 20260905030508 | -1 | 0 | 0.0 | 0.0 | 0.00 | 0.00 | 0.00 | 100 | 1018.9 |
| 20260905030008 | -1 | 0 | 0.0 | 0.0 | 0.00 | 0.00 | 0.00 | 100 | 1019.2 |
| 20260905025508 | 15 | 285 | 32.2 | 35.4 | 0.00 | 0.00 | 0.00 | 76 | 1019.4 |
| 20260905025007 | 15 | 285 | 32.2 | 35.4 | 0.00 | 0.00 | 0.00 | 76 | 1019.6 |
| 20260905024508 | -1 | 0 | 0.0 | 0.0 | 0.00 | 0.00 | 0.00 | 100 | 1019.2 |
| 20260905024008 | -1 | 0 | 0.0 | 0.0 | 0.00 | 0.00 | 0.00 | 100 | 1018.9 |
| 20260905023507 | -1 | 0 | 0.0 | 0.0 | 0.00 | 0.00 | 0.00 | 100 | 1018.5 |
| 20260905023008 | -1 | 0 | 0.0 | 0.0 | 0.00 | 0.00 | 0.00 | 100 | 1018.3 |
| 20260905022508 | -1 | 0 | 0.0 | 0.0 | 0.00 | 0.00 | 0.00 | 100 | 1018.4 |
| 20260905022007 | -1 | 0 | 0.0 | 0.0 | 0.00 | 0.00 | 0.00 | 100 | 1018.2 |
| 20260905021507 | -1 | 0 | 0.0 | 0.0 | 0.00 | 0.00 | 0.00 | 100 | 1018.3 |
| 20260905021008 | -1 | 0 | 0.0 | 0.0 | 0.00 | 0.00 | 0.00 | 100 | 1018.4 |
| 20260905020508 | 15 | 314 | 14.5 | 17.7 | 0.00 | 0.00 | 0.00 | 71 | 1018.4 |
| 20260905020007 | 15 | 314 | 14.5 | 17.7 | 0.00 | 0.00 | 0.00 | 71 | 1018.3 |
| 20260905015508 | 15 | 298 | 16.1 | 27.4 | 0.00 | 0.00 | 0.00 | 70 | 1018.3 |
| 20260905015007 | 15 | 289 | 29.0 | 32.2 | 0.00 | 0.00 | 0.00 | 70 | 1018.7 |
| 20260905014508 | 15 | 289 | 24.1 | 27.4 | 0.00 | 0.00 | 0.00 | 70 | 1018.5 |
| 20260905014008 | 16 | 301 | 33.8 | 40.2 | 0.00 | 0.00 | 0.00 | 63 | 1018.1 |
| 20260905013507 | 16 | 299 | 22.5 | 37.0 | 0.00 | 0.00 | 0.00 | 61 | 1018.3 |
| 20260905013007 | 16 | 291 | 27.4 | 35.4 | 0.00 | 0.00 | 0.00 | 61 | 1017.7 |
| 20260905012508 | 16 | 301 | 22.5 | 38.6 | 0.00 | 0.00 | 0.00 | 61 | 1017.8 |
| 20260905012007 | 16 | 307 | 22.5 | 32.2 | 0.00 | 0.00 | 0.00 | 61 | 1017.7 |
| 20260905011507 | 17 | 316 | 17.7 | 24.1 | 0.00 | 0.00 | 0.00 | 63 | 1017.7 |
| 20260905011008 | 17 | 296 | 30.6 | 35.4 | 0.00 | 0.00 | 0.00 | 64 | 1017.8 |
| 20260905010507 | 17 | 298 | 41.8 | 45.1 | 0.00 | 0.00 | 0.00 | 64 | 1017.7 |
| 20260905010008 | 17 | 308 | 22.5 | 37.0 | 0.00 | 0.00 | 0.00 | 66 | 1018.0 |
| 20260905005508 | 17 | 298 | 27.4 | 35.4 | 0.00 | 0.00 | 0.00 | 66 | 1017.7 |
| 20260905005007 | 16 | 305 | 22.5 | 25.7 | 0.00 | 0.00 | 0.00 | 67 | 1017.6 |
| 20260905004508 | 16 | 305 | 22.5 | 25.7 | 0.00 | 0.00 | 0.00 | 67 | 1017.7 |
| 20260905004007 | 16 | 318 | 8.0 | 12.9 | 0.00 | 0.00 | 0.00 | 67 | 1017.8 |
| 20260905003508 | 16 | 305 | 19.3 | 24.1 | 0.00 | 0.00 | 0.00 | 67 | 1017.8 |
| 20260905003007 | 16 | 308 | 12.9 | 22.5 | 0.00 | 0.00 | 0.00 | 67 | 1017.9 |
| 20260905002507 | 17 | 313 | 12.9 | 19.3 | 0.00 | 0.00 | 0.00 | 65 | 1017.4 |
| 20260905002007 | 16 | 301 | 12.9 | 16.1 | 0.00 | 0.00 | 0.00 | 67 | 1017.6 |
| 20260905001508 | 16 | 299 | 17.7 | 22.5 | 0.00 | 0.00 | 0.00 | 67 | 1017.5 |
| 20260905001006 | 17 | 298 | 19.3 | 25.7 | 0.00 | 0.00 | 0.00 | 66 | 1017.8 |
| 20260905000507 | 17 | 317 | 17.7 | 22.5 | 0.00 | 0.00 | 0.00 | 64 | 1017.8 |
| 20260905000009 | 17 | 327 | 19.3 | 25.7 | 0.00 | 0.00 | 0.00 | 64 | 1017.6 |